User: anonymous   Login
Location: Gloden
(48.4833°N, 15.3167°E)
Time: 00:31:44
(UTC+00:00)
Language:

CUTE-I - Orbit

View from above orbital plane
View from above orbital plane
View from above satellite
View from above satellite

Ground track
Ground track

The orbit data is extracted from the following two-line orbital elements,

1 27844U 03031E   21335.54997674  .00000125  00000-0  75635-4 0  9995
2 27844  98.6806 341.2341 0009162 319.9522  40.0980 14.22354762955737
Epoch (UTC): 01 December 2021 13:11:57
Eccentricity: 0.0009162
inclination: 98.6806°
perigee height: 811 km
apogee height: 824 km
right ascension of ascending node: 341.2341°
argument of perigee: 319.9522°
revolutions per day: 14.22354762
mean anomaly at epoch: 40.0980°
orbit number at epoch: 95573

The dashed part of the orbit path shows where the satellite is in the earth's shadow,  

DLR